Regional Weather Roundup
Issued by NWS

Home | Current Version | Previous Version | Text Only | Print | Product List | Glossary On
Versions: 1 2 3 4 5 6 7 8 9 10 11 12 13 14 15 16 17 18 19 20 21 22 23 24 25 26 27 28 29 30 31 32 33 34 35 36 37 38 39 40 41 42 43 44 45 46 47 48 49 50
000
ASUS44 KFWD 020215
RWRTX
NORTH TEXAS HOURLY WEATHER ROUNDUP
NATIONAL WEATHER SERVICE FORT WORTH TX
900 PM CDT SUN MAY 01 2016

NOTE: "FAIR" INDICATES FEW OR NO CLOUDS BELOW 12,000 FEET WITH NO
SIGNIFICANT WEATHER AND/OR OBSTRUCTIONS TO VISIBILITY.

TXZ118-119-020300-
DALLAS/FORT WORTH METROPLEX

CITY           SKY/WX    TMP DP  RH WIND       PRES   REMARKS
DFW AIRPORT    PTCLDY    68  49  50 NE13      30.01R
DALLAS LOVE    MOCLDY    70  49  47 N12       30.01R
FTW MEACHAM    CLEAR     67  50  54 N12       30.01R
DAL-EXECUTIVE  MOCLDY    68  49  50 N12       30.00R
FTW-ALLIANCE   PTCLDY    65  51  60 N8        30.02R
FTW-NAS-JRB    PTCLDY    68  51  54 N10       30.02R
FTW-SPINKS     MOCLDY    65  51  60 N8        30.03R
ARLINGTON      MOCLDY    71  50  47 N14       30.00R
GRAND PRAIRIE  CLEAR     68  49  51 N10       30.02R
MESQUITE       CLOUDY    68  51  54 N10       30.00R
LANCASTER      MOCLDY    69  49  48 N6        30.01R
$$

TXZ091>094-102>105-117-120-121-131>134-020300-
NORTH CENTRAL TEXAS

CITY           SKY/WX    TMP DP  RH WIND       PRES   REMARKS
SHRMAN/DENISON CLEAR     58  46  66 N7        30.04S
GAINESVILLE    CLOUDY    62  50  65 N7        30.07R
BOWIE          CLOUDY    59  48  66 N8G17     30.07R
BRIDGEPORT     PTCLDY    64  49  60 N8G16     30.07R
DECATUR        PTCLDY    63  47  56 N6        30.05R
DENTON         CLEAR     62  51  67 N8        30.03R
MCKINNEY       CLEAR     63  53  70 N6        30.02R
GREENVILLE     MOCLDY    66  52  59 NW9       30.00R
ROCKWALL       CLOUDY    67  52  58 N8        30.00R
TERRELL        CLEAR     68  53  58 N9        30.00R
WAXAHACHIE     MOCLDY    65  55  69 N5        30.01R
CLEBURNE       MOCLDY    66  55  68 N9        30.02R
GRANBURY       CLOUDY    68  54  60 NW5       30.04R
$$

TXZ083>090-098>101-113>116-127>130-139>142-154-155-020300-
WESTERN NORTH TEXAS

CITY           SKY/WX    TMP DP  RH WIND       PRES   REMARKS
WICHITA FALLS  CLOUDY    54  50  86 N15       30.12R
WF-KICKAPOO    CLOUDY    58  50  75 NW10G20   30.15R THUNDER
VERNON         CLOUDY    57  40  54 N12G18    30.17R
ABILENE        CLOUDY    57  46  66 N20       30.11R
ABILENE-DYESS  CLOUDY    56  47  70 N17       30.11R
BRECKENRIDGE   CLOUDY    61  46  56 N12G17    30.10R
GRAHAM         CLOUDY    60  49  67 N13G20    30.08R
MINERAL WELLS  MOCLDY    64  48  56 N10       30.03R
STEPHENVILLE   CLOUDY    66  49  52 N10       30.06R
COMANCHE       CLOUDY    65  49  56 N9        30.04R
BROWNWOOD      CLOUDY    66  46  48 N13G18    30.05R
COLEMAN        CLOUDY    63  46  53 N14G22    30.07R
$$

TXZ143>147-156>162-174-175-020300-
CENTRAL TEXAS

CITY           SKY/WX    TMP DP  RH WIND       PRES   REMARKS
WACO           CLOUDY    68  54  60 N7        29.98R
WACO-TSTC      CLEAR     66  55  68 N7        29.98R
WACO-MCGREGOR  PTCLDY    67  55  65 N8        29.98R
HILLSBORO      MOCLDY    64  56  75 N7        30.00R
CORSICANA      CLOUDY    69  56  62 N9        29.98R
HEARNE         CLOUDY    69  61  76 CALM      29.94R
CAMERON        PTCLDY    67  61  79 N6        29.94R
TEMPLE         MOCLDY    67  56  67 N9        29.97R
KILLEEN        CLOUDY    67  54  62 N9        29.98R
KILLEEN-SKYLRK MOCLDY    68  56  65 N8        29.98R
FORT HOOD      CLOUDY    67  55  63 N9        29.96R
GATESVILLE     MOCLDY    68  52  56 MISG      30.02R
HAMILTON       CLOUDY    66  52  60 N8        30.03R
LAMPASAS       CLOUDY    68  58  70 N5        30.00R
$$

TXZ095>097-106>112-122>126-135>138-148>153-164>167-020300-
EAST TEXAS

CITY           SKY/WX    TMP DP  RH WIND       PRES   REMARKS
PARIS          PTCLDY    64  48  55 N9        29.99R
SULPHUR SPRNGS PTCLDY    67  56  67 NW10      30.01R
MOUNT PLEASANT CLEAR     70  56  63 NW7       29.96R
MINEOLA        CLEAR     66  59  77 CALM      29.97R
TYLER          PTCLDY    70  57  63 N5        29.95R
LONGVIEW       MOCLDY    72  62  71 NW5       29.92R
MARSHALL       PTCLDY    70  62  75 CALM      29.94R
ATHENS         MOCLDY    68  55  64 N5        29.95R
PALESTINE      CLEAR     69  61  75 N7        29.94S
JACKSONVILLE   CLOUDY    72  61  67 N3        29.95R
HENDERSON      PTCLDY    72  62  71 CALM      29.94R
CENTER         CLOUDY    76  70  81 CALM      29.92R
NACOGDOCHES    MOCLDY    73  66  78 N5        29.91R
LUFKIN         CLOUDY    74  70  87 SE12      29.91R
$$

SUPPLEMENTAL OBSERVATIONS (CENTRAL)

CITY           SKY/WX    TMP DP  RH WIND       PRES   REMARKS
LAKE TEXOMA      N/A     64  46  52 N12         N/A
CADDO GRASSLND   N/A     63  54  72 N1          N/A
PAT MAYSE LAKE   N/A     63  50  63 NW9         N/A
ATHENS           N/A     68  57  68 N2          N/A
MCGREGOR         N/A     66  55  68 N2          N/A
TEMPLE           N/A     70  54  56 VRB2G13     N/A
$$

SUPPLEMENTAL OBSERVATIONS (WEST)

CITY           SKY/WX    TMP DP  RH WIND       PRES   REMARKS
MILLERS CREEK    N/A     54  48  82 VRB8        N/A
POSSUM KINGDOM   N/A     61  48  63 N13         N/A
LBJ GRASSLAND    N/A     64  46  52 N9          N/A
GRANBURY         N/A     66  52  59 N5          N/A
HAMBY            N/A     55  46  71 N10G22      N/A
IVIE RESERVOIR   N/A     64  43  45 N10         N/A
COLORADO BEND    N/A     66  52  59 E5          N/A
$$

SUPPLEMENTAL OBSERVATIONS (EAST)

CITY           SKY/WX    TMP DP  RH WIND       PRES   REMARKS
CLARKSVILLE      N/A     66  54  63 NW9         N/A
TEXARKANA        N/A     66  61  82 CALM        N/A
LINDEN           N/A     70  63  78 CALM        N/A
CADDO LAKE       N/A     68  63  83 CALM        N/A
GILMER           N/A     70  57  64 N1          N/A
HENDERSON        N/A     72  63  73 VRB2        N/A
LUFKIN           N/A     75  66  73 MISG        N/A
N SABINE NF      N/A     72  68  88 MISG        N/A
S SABINE NF      N/A     70  68  94 W2          N/A
$$

SUPPLEMENTAL OBSERVATIONS ARE A COLLECTION OF AUTOMATED INSTRUMENTS
THAT ARE MAINTAINED BY A VARIETY OF FEDERAL AND STATE AGENCIES.
CERTAIN ELEMENTS...SUCH AS HUMIDITY VALUES AND SUSTAINED WIND
SPEEDS...MAY BE APPROXIMATED.





USA.gov is the U.S. government's official web portal to all federal, state and local government web resources and services.